This demonstration page uses our WeatherBlox Daily Observations layout. Learn more.

Left ArrowRight Arrow

Hourly Observations for April 26, 2022

Temp ( °F °C ) Dew Point ( °F °C ) Humidity (%) Winds ( mph kmh ) Pressure ( in mb ) Visibility ( mi km ) Precip ( " mm )
12:15 am 00:15 Clear 39 4.1 11 -11.5 31 31 SE 6 9 30.41 1030 10 16 0.00 0.00
12:35 am 00:35 Clear 37 3 12 -11.1 35 35 SE 5 7 30.43 1030 10 16 0.00 0.00
12:55 am 00:55 Clear 33 0.8 13 -10.6 43 43 S 3 6 30.45 1031 10 16 0.00 0.00
1:15 am 01:15 Clear 36 2 13 -10.4 40 40 SSE 6 9 30.44 1031 10 16 0.00 0.00
1:35 am 01:35 Clear 37 2.8 12 -11 36 36 SE 6 9 30.42 1030 10 16 0.00 0.00
1:55 am 01:55 Clear 35 1.5 13 -10.6 41 41 SSE 6 9 30.43 1031 10 16 0.00 0.00
2:15 am 02:15 Clear 34 0.9 13 -10.5 43 43 S 7 11 30.44 1031 10 16 0.00 0.00
2:35 am 02:35 Clear 33 0.5 13 -10.5 44 44 S 7 11 30.44 1031 10 16 0.00 0.00
2:55 am 02:55 Clear 32 0.1 13 -10.5 45 45 S 8 13 30.43 1031 10 16 0.00 0.00
3:15 am 03:15 Clear 32 0 13 -10.3 46 46 S 7 11 30.44 1031 10 16 0.00 0.00
3:35 am 03:35 Clear 33 0.6 14 -10 45 45 S 9 15 30.43 1030 10 16 0.00 0.00
3:55 am 03:55 Clear 33 0.8 14 -10.1 44 44 S 9 15 30.42 1030 10 16 0.00 0.00
4:15 am 04:15 Clear 33 0.5 14 -9.8 46 46 S 9 15 30.43 1031 10 16 0.00 0.00
4:35 am 04:35 Clear 37 2.8 14 -10 39 39 SSW 10 17 30.41 1030 10 16 0.00 0.00
4:55 am 04:55 Clear 34 1 15 -9.2 47 47 S 8 13 30.43 1030 10 16 0.00 0.00
5:15 am 05:15 Clear 33 0.4 16 -9 50 50 S 6 9 30.43 1031 10 16 0.00 0.00
5:35 am 05:35 Clear 32 0 16 -8.7 52 52 S 8 13 30.44 1031 10 16 0.00 0.00
5:55 am 05:55 Clear 32 0 17 -8.5 53 53 S 9 15 30.43 1030 10 16 0.00 0.00
6:15 am 06:15 Clear 33 0.8 17 -8.3 51 51 S 9 15 30.42 1030 10 16 0.00 0.00
6:35 am 06:35 Clear 33 0.5 17 -8.2 53 53 S 9 15 30.42 1030 10 16 0.00 0.00
6:55 am 06:55 Sunny 33 0.4 18 -7.9 54 54 S 9 15 30.42 1030 10 16 0.00 0.00
7:15 am 07:15 Sunny 34 1 18 -7.7 53 53 S 10 17 30.42 1030 10 16 0.00 0.00
7:35 am 07:35 Sunny 34 1.3 18 -7.7 52 52 S 9 15 30.41 1030 10 16 0.00 0.00
7:55 am 07:55 Sunny 38 3.1 19 -7 48 48 S 10 17 30.40 1029 10 16 0.00 0.00
8:15 am 08:15 Sunny 41 5.1 19 -7 42 42 S 14 22 30.38 1029 10 16 0.00 0.00
8:35 am 08:35 Sunny 44 6.5 20 -6.9 38 38 S 12 19 30.36 1028 10 16 0.00 0.00
8:55 am 08:55 Sunny 47 8.3 19 -7.5 32 32 S 16 26 30.34 1027 10 16 0.00 0.00
9:15 am 09:15 Sunny 50 10.1 19 -7.3 29 29 S 24 39 30.31 1026 10 16 0.00 0.00
9:35 am 09:35 Sunny 52 11 19 -7.5 27 27 SSW 24 39 30.30 1026 10 16 0.00 0.00
9:55 am 09:55 Sunny 53 11.9 19 -7.1 26 26 SSW 21 33 30.29 1026 10 16 0.00 0.00
10:15 am 10:15 Sunny 55 12.8 20 -6.9 25 25 SSW 20 31 30.28 1025 10 16 0.00 0.00
10:35 am 10:35 Sunny 57 13.8 21 -6 25 25 SSW 24 39 30.26 1025 10 16 0.00 0.00
10:55 am 10:55 Sunny 58 14.5 22 -5.4 25 25 SSW 23 37 30.25 1024 10 16 0.00 0.00
11:15 am 11:15 Sunny 60 15.3 23 -5.1 24 24 S 22 35 30.24 1024 10 16 0.00 0.00
11:35 am 11:35 Sunny 61 16.3 23 -4.9 23 23 SSW 22 35 30.22 1023 10 16 0.00 0.00
11:55 am 11:55 Sunny 62 16.8 24 -4.5 23 23 SSW 24 39 30.20 1023 10 16 0.00 0.00
12:15 pm 12:15 Sunny 64 17.6 24 -4.2 22 22 SSW 23 37 30.19 1022 10 16 0.00 0.00
12:35 pm 12:35 Sunny 65 18.5 25 -4.1 21 21 S 20 31 30.16 1021 10 16 0.00 0.00
12:55 pm 12:55 Sunny 66 19.1 24 -4.4 20 20 SSW 24 39 30.14 1021 10 16 0.00 0.00
1:15 pm 13:15 Sunny 68 19.9 24 -4.2 19 19 SSW 25 41 30.12 1020 10 16 0.00 0.00
1:35 pm 13:35 Sunny 68 20.1 24 -4.2 19 19 SSW 25 41 30.10 1019 10 16 0.00 0.00
1:55 pm 13:55 Sunny 69 20.5 25 -3.8 19 19 S 24 39 30.07 1018 10 16 0.00 0.00
2:15 pm 14:15 Sunny 70 20.9 26 -3.6 19 19 S 32 52 30.06 1018 10 16 0.00 0.00
2:35 pm 14:35 Sunny 70 21.1 26 -3.4 19 19 S 28 44 30.06 1018 10 16 0.00 0.00
2:55 pm 14:55 Sunny 71 21.4 26 -3.3 19 19 SSW 18 30 30.05 1017 10 16 0.00 0.00
3:15 pm 15:15 Sunny 71 21.6 26 -3.4 18 18 S 29 46 30.03 1017 10 16 0.00 0.00
3:35 pm 15:35 Sunny 71 21.8 26 -3.4 18 18 SSW 28 44 30.02 1017 10 16 0.00 0.00
3:55 pm 15:55 Sunny 71 21.4 26 -3.6 18 18 S 25 41 30.01 1016 10 16 0.00 0.00
4:15 pm 16:15 Sunny 71 21.9 26 -3.6 18 18 SSW 29 46 29.99 1016 10 16 0.00 0.00
4:35 pm 16:35 Sunny 71 21.9 26 -3.5 18 18 SSW 28 44 29.97 1015 10 16 0.00 0.00
4:55 pm 16:55 Sunny 72 22.2 26 -3.2 18 18 S 30 48 29.97 1015 10 16 0.00 0.00
5:15 pm 17:15 Sunny 73 22.6 27 -3 18 18 SSW 24 39 29.96 1014 10 16 0.00 0.00
5:35 pm 17:35 Sunny 72 22.2 26 -3.1 18 18 S 25 41 29.94 1014 10 16 0.00 0.00
5:55 pm 17:55 Sunny 73 22.7 25 -3.8 17 17 SSW 25 41 29.93 1013 10 16 0.00 0.00
6:15 pm 18:15 Sunny 73 22.5 26 -3.6 17 17 S 24 39 29.92 1013 10 16 0.00 0.00
6:35 pm 18:35 Sunny 72 22.1 26 -3.3 18 18 S 25 41 29.92 1013 10 16 0.00 0.00
6:55 pm 18:55 Sunny 72 22 26 -3.1 18 18 S 29 46 29.91 1013 10 16 0.00 0.00
7:15 pm 19:15 Sunny 71 21.4 27 -2.9 19 19 S 23 37 29.91 1013 10 16 0.00 0.00
7:35 pm 19:35 Sunny 69 20.7 27 -2.9 20 20 S 20 31 29.91 1013 10 16 0.00 0.00
7:55 pm 19:55 Sunny 68 20 27 -2.6 22 22 S 17 28 29.92 1013 10 16 0.00 0.00
8:15 pm 20:15 Sunny 66 19.1 28 -2.4 23 23 S 16 26 29.91 1013 10 16 0.00 0.00
8:35 pm 20:35 Clear 64 18 28 -2.5 25 25 SSE 15 24 29.93 1014 10 16 0.00 0.00
8:55 pm 20:55 Clear 64 17.5 28 -2.4 26 26 S 17 28 29.94 1014 10 16 0.00 0.00
9:15 pm 21:15 Clear 62 16.8 28 -2 28 28 SSE 15 24 29.94 1014 10 16 0.00 0.00
9:35 pm 21:35 Clear 60 15.8 29 -1.5 31 31 SSE 16 26 29.95 1014 10 16 0.00 0.00
9:55 pm 21:55 Clear 60 15.8 28 -2 30 30 SSE 18 30 29.95 1014 10 16 0.00 0.00
10:15 pm 22:15 Clear 58 14.7 28 -2.2 31 31 SSE 16 26 29.97 1015 10 16 0.00 0.00
10:35 pm 22:35 Clear 58 14.7 27 -2.7 30 30 SSE 18 30 29.97 1015 10 16 0.00 0.00
10:55 pm 22:55 Clear 58 14.5 26 -3.1 30 30 S 21 33 29.97 1015 10 16 0.00 0.00
11:15 pm 23:15 Clear 58 14.3 26 -3.1 30 30 S 25 41 29.97 1015 10 16 0.00 0.00
11:35 pm 23:35 Clear 57 13.9 27 -3 31 31 S 21 33 29.97 1015 10 16 0.00 0.00
11:55 pm 23:55 Clear 56 13.5 27 -3 32 32 S 21 33 29.96 1015 10 16 0.00 0.00

Powered by AerisWeather